Regional Weather Roundup
Issued by NWS

Home | Current Version | Previous Version | Graphics & Text | Print | Product List | Glossary On
Versions: 1 2 3 4 5 6 7 8 9 10 11 12 13 14 15 16 17 18 19 20 21 22 23 24 25 26
000
ASUS45 KBOU 130810
RWRCO

WEATHER ROUNDUP FOR COLORADO
NATIONAL WEATHER SERVICE DENVER/BOULDER CO
100 AM MST WED DEC 13 2017

NOTE: "FAIR" INDICATES FEW OR NO CLOUDS BELOW 12000 FEET WITH NO
SIGNIFICANT WEATHER AND/OR OBSTRUCTIONS TO VISIBILITY.

COZ001>005-013-030-031-130900-
...NORTHWEST COLORADO...

CITY           SKY/WX    TMP DP  RH WIND       PRES   REMARKS
CRAIG          FAIR      11   7  84 CALM      30.28F
HAYDEN         FAIR      25  14  63 E12       30.28F WCI  14
MEEKER         FAIR      21  10  62 CALM      30.30F
RABBIT EARS PA FAIR      28  10  47 W8        30.31F WCI  20
STEAMBOAT SPGS FAIR      20  13  73 CALM      30.28F
WALDEN         FAIR      27  10  50 S9        30.25F WCI  17
$$

COZ006>008-011-130900-
...WEST CENTRAL VALLEYS...

CITY           SKY/WX    TMP DP  RH WIND       PRES   REMARKS
GRAND JUNCTION FAIR      26   9  48 E7        30.29F WCI  18
MONTROSE       FAIR      22   9  57 SE9       30.33F WCI  12
EAGLE          FAIR      13   9  84 E3        30.37F
RIFLE          FAIR      22  10  60 CALM      30.32F
DELTA          FAIR      26   8  46 CALM      30.32S
NUCLA          FAIR      28   5  37 E7        30.34S WCI  21
$$

COZ017>023-064>068-130900-
...SOUTHWEST COLORADO...

CITY           SKY/WX    TMP DP  RH WIND       PRES   REMARKS
DURANGO        FAIR      15  -1  49 N5        30.27F WCI   8
CORTEZ         FAIR      14   2  58 NE6       30.28F WCI   5
PAGOSA SPRINGS FAIR      22   1  40 CALM      30.29F
TELLURIDE      FAIR      31   8  37 SE6       30.36F WCI  26
WOLF CREEK PAS FAIR      30   0  27 CALM      30.46F
$$

COZ009-010-012-014-032>034-037-058>063-130900-
...CENTRAL COLORADO...

CITY           SKY/WX    TMP DP  RH WIND       PRES   REMARKS
ASPEN          FAIR      21  10  62 S6        30.31F WCI  13
BUENA VISTA    FAIR      28   8  43 S6        30.28S WCI  21
COPPER MTN     NOT AVBL
BERTHOUD PASS  FAIR      21  10  63 NW41G52   30.28F WCI   0
COTTONWOOD PAS FAIR      41   1  19 W15G21    30.31F
GUNNISON       FAIR       8   2  76 SE3       30.37F
KREMMLING      FAIR      10   5  79 CALM      30.35F
LEADVILLE      FAIR      20   3  48 NE10      30.32F WCI   9
MONARCH PASS   FAIR      27   1  33 W28G35    30.47F WCI  11
SALIDA         FAIR      29  11  46 NW6       30.34F WCI  23
SUNLIGHT       FAIR      30   3  31 W7        30.42F WCI  23
WILKERSON PASS FAIR      32  -8  18 W10G20    30.35F WCI  24
$$

COZ069>075-130900-
...SAN LUIS VALLEY/SANGRE DE CRISTO MOUNTAINS...

CITY           SKY/WX    TMP DP  RH WIND       PRES   REMARKS
ALAMOSA        FAIR      11  -2  56 CALM      30.28F
DEL NORTE      FAIR      26   3  37 W14       30.29F WCI  15
LA VETA PASS   FAIR      32   7  34 S30G39      N/A  WCI  18
SAGUACHE       NOT AVBL
$$

COZ035-036-038>040-130900-
...NORTHERN COLORADO FRONT RANGE...

CITY           SKY/WX    TMP DP  RH WIND       PRES   REMARKS
DENVER INTL AP FAIR      41   8  25 SW13      30.05F
DMNS CITY PARK NOT AVBL
AURORA         PTCLDY    39   7  26 S9        30.08F
FRONT RANGE AP FAIR      47   8  20 SW14      30.06F
ERIE MUNI ARPT FAIR      46   2  16 W5        30.09F
BOULDER MUN AP FAIR      55   5  13 NE3       30.04F
CENTENNIAL     FAIR      43   7  22 SW8       30.08F
BROOMFIELD     FAIR      55   5  13 W30G36    30.04F
FORT COLLINS   FAIR      48   7  18 CALM      30.04S
LONGMONT       FAIR      53   5  14 W5        30.04F
$$

COZ041-046-047-076>085-087-088-130900-
...PIKES PEAK/PALMER DIVIDE AND SOUTHERN FOOTHILLS...

CITY           SKY/WX    TMP DP  RH WIND       PRES   REMARKS
COLO. SPRINGS  FAIR      43   7  22 N12       30.11F
A. F. ACADEMY  FAIR      34   5  29 N6        30.11F WCI  28
SCHRIEVER AFB  FAIR      50   2  14 N10       30.10F
CHEYENNE MTN   FAIR      49   4  16 CALM      30.08F
ELLICOTT         N/A    N/A N/A N/A CALM      30.09F
FALCON         FAIR      40   2  20 NW12      30.13F
FORT CARSON    FAIR      38  10  31 N12       30.08F
LIMON          FAIR      27  10  49 NW5       30.06F WCI  22
MONUMENT HILL  FAIR      34   9  35 SW10      30.15F WCI  26
CANON CITY     FAIR      46  12  25 MISG      30.11S
WALSENBURG     FAIR      48   9  20 SW13G26   30.12F
TRINIDAD       FAIR      36  11  35 W14       30.11F
$$

COZ042>045-048>051-090-091-130900-
...NORTHEAST COLORADO...

CITY           SKY/WX    TMP DP  RH WIND       PRES   REMARKS
GREELEY ARPT   FAIR      25  13  60 CALM      30.03F
AKRON          FAIR      38  11  32 MISG      30.02R
BURLINGTON     FAIR      31  15  52 W9        29.99S WCI  23
WRAY           FAIR      37  16  41 W14       29.97F
YUMA           FAIR      34  14  44 W13       30.00S WCI  25
STERLING       FAIR      36  12  38 S7        30.00S
HOLYOKE        FAIR      41  12  30 W13       29.96S
FORT MORGAN    FAIR      44   5  19 NW10      30.03R
$$

COZ086-089-092>099-130900-
...SOUTHEAST COLORADO...

CITY           SKY/WX    TMP DP  RH WIND       PRES   REMARKS
PUEBLO         FAIR      28  10  46 CALM      30.06F
LA JUNTA       FAIR      31  11  43 W6        30.04F WCI  25
LAMAR          FAIR      32  10  40 W7        30.01S WCI  26
SPRINGFIELD      N/A     38  12  34 W6        30.02F
$$




USA.gov is the U.S. government's official web portal to all federal, state and local government web resources and services.